Wind_Speed
20 22 24 24 26 30 33 32 33 32 34 34 36 36 37 38 38 39 35 35 34 33 36 37 38 38 38 37 34 35 37 35
20 25 24 27 33 32 33 35 36 35 35 36 38 38 39 37 38 38 36 35 36 35 36 38 39 39 40 40 38 37 38 40
18 19 20 22 26 28 30 31 35 33 36 36 36 37 38 37 38 40 36 36 36 37 40 38 39 40 40 41 39 36 37 38
17 22 24 24 26 32 35 37 36 35 30 36 35 34 34 37 37 38 39 41 40 40 41 39 40 38 37 36 37 37 35 36
24 25 28 32 34 37 33 30 28 30 31 30 36 34 35 29 21 26 33 36 39 38 36 37 38 37 37 37 32 35 36 35
24 28 31 33 35 33 32 31 33 35 39 39 35 36 34 34 35 39 41 39 40 41 42 42 43 42 41 40 40 38 36 36
21 21 25 26 29 28 31 31 31 35 36 39 35 37 36 37 40 44 43 41 43 43 46 47 48 50 49 47 44 43 43 41
18 21 22 20 27 32 35 35 36 34 40 39 39 41 41 42 43 46 42 41 42 45 47 48 51 53 52 50 49 47 45 44
21 22 22 23 26 31 35 41 43 38 38 43 42 45 46 45 47 50 46 44 47 46 48 51 55 55 53 51 49 48 46 46
24 24 22 23 27 32 41 44 45 41 37 44 46 48 47 47 54 49 48 49 46 48 52 55 54 54 52 50 48 48 47 46
25 24 24 29 40 38 38 41 41 39 38 46 47 51 50 48 51 46 46 45 48 50 52 51 50 48 47 46 46 45 43 42
24 26 28 33 38 41 37 38 39 39 43 48 47 50 48 50 48 45 45 48 49 48 47 48 48 47 45 45 44 42 41 41
26 29 37 37 34 42 44 45 42 43 46 44 48 47 49 50 46 47 47 43 44 46 48 50 49 47 46 45 43 42 42 44
32 35 38 36 42 47 46 45 43 44 41 44 47 47 49 43 46 42 40 42 45 48 51 51 48 47 46 44 45 45 47 47
38 38 38 50 43 44 44 45 44 41 41 43 45 45 42 45 39 38 39 43 47 49 51 49 48 46 46 46 47 49 49 50
40 51 53 47 46 44 45 44 44 40 40 42 42 42 43 36 36 37 42 46 48 52 51 47 44 46 46 48 49 49 52 54
45 49 52 47 43 44 43 41 39 37 39 43 43 36 32 32 36 41 45 48 51 49 46 45 46 46 47 47 47 51 52 50
52 49 47 47 47 44 40 32 29 30 39 41 29 29 30 35 41 45 47 50 49 46 45 46 47 45 44 46 47 49 47 44
52 52 49 46 42 41 35 35 34 40 39 28 26 28 32 39 42 45 48 46 46 45 46 46 43 43 44 46 44 42 41 39
Wind_Direction
264 278 278 274 278 285 286 287 286 286 286 284 283 281 281 282 282 282 283 283 285 287 289 289 294 299 298 298 292 285 285 279
258 278 279 276 282 287 286 289 291 290 288 286 284 284 283 284 285 284 286 286 286 286 289 294 295 294 293 291 286 282 280 279
280 286 282 278 280 286 291 294 294 293 289 286 284 289 291 289 287 286 286 286 288 290 294 296 295 294 292 291 287 281 275 275
296 293 291 287 290 294 294 297 295 294 289 291 292 289 287 287 284 282 289 291 292 295 294 291 291 292 292 288 285 283 276 268
295 288 289 288 290 299 297 298 297 295 293 292 292 290 290 284 271 269 287 290 294 299 299 299 299 297 295 293 288 277 277 277
298 296 293 294 296 295 294 292 293 295 295 294 289 284 282 275 269 272 283 286 286 292 297 302 303 303 301 297 293 290 284 278
302 300 301 296 294 294 297 298 297 294 290 292 287 279 278 270 269 270 276 282 287 291 291 293 297 299 300 299 295 292 289 285
317 313 310 300 308 305 307 306 304 298 287 285 281 276 273 271 270 271 274 279 280 282 289 292 292 295 297 296 294 291 288 286
314 312 310 308 306 303 308 310 309 304 289 284 281 277 274 273 270 273 279 279 277 281 283 286 291 293 294 295 293 290 288 285
317 312 311 310 303 300 311 309 306 301 292 280 282 280 276 274 273 278 277 278 278 281 286 291 293 295 296 295 292 290 288 285
313 310 309 311 315 313 299 306 304 298 286 278 277 275 273 269 275 274 277 278 283 287 289 292 294 294 293 292 290 288 285 282
310 311 310 311 310 318 312 308 301 296 289 284 277 274 271 268 272 275 277 284 286 289 293 296 296 297 296 295 292 292 290 288
309 313 316 314 314 317 315 310 304 297 296 283 276 273 270 271 277 282 284 287 292 295 299 301 301 300 299 297 295 293 290 288
309 310 317 311 318 314 313 308 303 298 299 286 280 273 275 281 285 285 291 296 299 302 305 304 302 300 298 296 294 293 292 290
310 309 309 321 320 311 311 308 302 298 298 291 281 282 287 288 285 293 298 300 301 304 307 304 302 299 298 296 294 294 292 290
312 310 318 319 318 311 310 304 296 291 292 293 293 288 290 287 296 298 299 302 302 306 306 304 301 300 298 295 294 292 290 289
310 312 319 320 317 311 305 298 287 290 284 288 293 284 288 298 298 300 302 303 305 307 306 304 302 299 296 295 294 293 291 289
316 314 320 322 315 310 306 290 284 272 275 293 282 291 301 301 301 301 302 305 307 308 307 304 302 299 299 299 297 294 291 289
315 317 320 319 311 306 293 294 276 281 286 284 297 302 301 303 304 305 306 307 309 308 307 307 304 304 303 301 298 292 290 289
Height
3123 3121 3119 3118 3116 3114 3111 3109 3107 3105 3103 3101 3098 3095 3091 3089 3086 3082 3082 3080 3079 3077 3075 3075 3074 3071 3068 3067 3067 3066 3064 3062
3119 3115 3115 3114 3111 3110 3106 3104 3101 3099 3096 3094 3090 3088 3084 3083 3079 3075 3074 3072 3070 3069 3068 3065 3063 3062 3061 3060 3058 3057 3056 3053
3114 3112 3110 3108 3106 3103 3100 3098 3092 3093 3088 3086 3084 3080 3078 3076 3071 3067 3068 3064 3064 3062 3058 3057 3054 3053 3052 3049 3047 3047 3047 3045
3111 3109 3106 3103 3101 3098 3094 3090 3088 3084 3085 3078 3076 3074 3072 3067 3065 3063 3058 3056 3055 3052 3050 3049 3046 3045 3043 3041 3039 3036 3034 3035
3107 3104 3101 3098 3095 3091 3088 3085 3081 3078 3076 3076 3070 3068 3064 3063 3060 3057 3055 3050 3043 3042 3040 3039 3037 3037 3034 3032 3030 3028 3024 3022
3104 3100 3096 3092 3088 3085 3081 3079 3076 3073 3067 3065 3063 3060 3059 3056 3054 3049 3046 3043 3039 3036 3034 3030 3028 3027 3025 3023 3020 3017 3015 3012
3099 3096 3092 3088 3082 3079 3076 3072 3069 3065 3061 3057 3055 3052 3049 3046 3042 3038 3035 3031 3029 3026 3023 3021 3018 3016 3012 3010 3009 3007 3004 3002
3095 3091 3086 3082 3076 3072 3068 3065 3061 3058 3051 3049 3045 3043 3040 3036 3032 3028 3024 3022 3020 3018 3014 3012 3008 3005 3002 2998 2996 2994 2992 2989
3089 3084 3078 3074 3071 3065 3061 3055 3050 3048 3043 3037 3035 3032 3029 3025 3020 3016 3014 3010 3008 3006 3003 3000 2997 2993 2989 2986 2983 2980 2977 2976
3084 3079 3074 3068 3062 3057 3054 3048 3042 3037 3034 3028 3023 3020 3017 3013 3007 3005 3003 2999 2997 2994 2991 2988 2984 2980 2976 2972 2969 2966 2964 2962
3078 3073 3066 3060 3055 3051 3044 3038 3033 3029 3024 3016 3013 3008 3005 3001 2997 2993 2991 2988 2986 2984 2980 2977 2973 2969 2966 2962 2958 2955 2953 2951
3071 3066 3061 3054 3046 3040 3034 3029 3023 3017 3012 3005 3002 2996 2993 2989 2985 2982 2980 2978 2976 2972 2969 2965 2960 2956 2952 2949 2945 2942 2938 2936
3065 3059 3051 3044 3037 3030 3023 3016 3012 3007 3000 2995 2990 2985 2982 2978 2977 2974 2971 2968 2965 2961 2956 2951 2947 2943 2939 2935 2931 2929 2926 2923
3057 3050 3042 3035 3027 3018 3012 3005 3000 2994 2990 2985 2980 2976 2972 2971 2969 2965 2961 2958 2953 2949 2944 2938 2934 2929 2926 2922 2919 2915 2911 2908
3049 3041 3033 3025 3017 3009 3002 2994 2988 2983 2980 2976 2971 2968 2967 2963 2959 2955 2952 2948 2943 2939 2933 2927 2922 2917 2913 2909 2905 2900 2896 2892
3039 3027 3021 3014 3007 3000 2991 2985 2977 2974 2970 2966 2964 2961 2957 2953 2949 2946 2943 2939 2934 2928 2921 2916 2911 2906 2901 2896 2892 2887 2882 2877
3026 3018 3011 3004 2998 2990 2983 2975 2969 2966 2962 2959 2956 2951 2949 2945 2941 2938 2934 2929 2923 2917 2910 2904 2899 2894 2889 2884 2878 2872 2866 2860
3015 3008 3001 2994 2986 2979 2973 2967 2963 2959 2955 2952 2948 2945 2942 2939 2935 2930 2924 2918 2912 2906 2900 2893 2887 2881 2876 2870 2864 2855 2850 2846
3005 2998 2991 2984 2976 2970 2964 2960 2956 2952 2949 2946 2942 2939 2935 2932 2927 2921 2915 2908 2901 2895 2889 2882 2874 2868 2863 2856 2849 2842 2837 2834